utcTime,localTime,pm25,nowcast
2022-09-09 15:00:00 +0000,2022-09-09 08:00:00 -0700,31,NA
2022-09-09 16:00:00 +0000,2022-09-09 09:00:00 -0700,20,24.3
2022-09-09 17:00:00 +0000,2022-09-09 10:00:00 -0700,22,23.1
2022-09-09 18:00:00 +0000,2022-09-09 11:00:00 -0700,29,25.6
2022-09-09 19:00:00 +0000,2022-09-09 12:00:00 -0700,14,19.8
2022-09-09 20:00:00 +0000,2022-09-09 13:00:00 -0700,10,14.8
2022-09-09 21:00:00 +0000,2022-09-09 14:00:00 -0700,6,10.3
2022-09-09 22:00:00 +0000,2022-09-09 15:00:00 -0700,7,8.6
2022-09-09 23:00:00 +0000,2022-09-09 16:00:00 -0700,8,8.3
2022-09-10 00:00:00 +0000,2022-09-09 17:00:00 -0700,18,13.1
2022-09-10 01:00:00 +0000,2022-09-09 18:00:00 -0700,36,24.5
2022-09-10 02:00:00 +0000,2022-09-09 19:00:00 -0700,38,31.2
2022-09-10 03:00:00 +0000,2022-09-09 20:00:00 -0700,39,35.1
2022-09-10 04:00:00 +0000,2022-09-09 21:00:00 -0700,41,38
2022-09-10 05:00:00 +0000,2022-09-09 22:00:00 -0700,38,38
2022-09-10 06:00:00 +0000,2022-09-09 23:00:00 -0700,41,39.5
2022-09-10 07:00:00 +0000,2022-09-10 00:00:00 -0700,41,40.2
2022-09-10 08:00:00 +0000,2022-09-10 01:00:00 -0700,49,44.6
2022-09-10 09:00:00 +0000,2022-09-10 02:00:00 -0700,36,40.3
2022-09-10 10:00:00 +0000,2022-09-10 03:00:00 -0700,42,41.1
2022-09-10 11:00:00 +0000,2022-09-10 04:00:00 -0700,43,42
2022-09-10 12:00:00 +0000,2022-09-10 05:00:00 -0700,37,40.3
2022-09-10 13:00:00 +0000,2022-09-10 06:00:00 -0700,39,40
2022-09-10 14:00:00 +0000,2022-09-10 07:00:00 -0700,36,38.9
2022-09-10 15:00:00 +0000,2022-09-10 08:00:00 -0700,31,35.6
2022-09-10 16:00:00 +0000,2022-09-10 09:00:00 -0700,35,35.3
2022-09-10 17:00:00 +0000,2022-09-10 10:00:00 -0700,35,35.2
2022-09-10 18:00:00 +0000,2022-09-10 11:00:00 -0700,21,27.9
2022-09-10 19:00:00 +0000,2022-09-10 12:00:00 -0700,12,19.9
2022-09-10 20:00:00 +0000,2022-09-10 13:00:00 -0700,7,13.4
2022-09-10 21:00:00 +0000,2022-09-10 14:00:00 -0700,9,11.2
2022-09-10 22:00:00 +0000,2022-09-10 15:00:00 -0700,17,14.1
2022-09-10 23:00:00 +0000,2022-09-10 16:00:00 -0700,18,16
2022-09-11 00:00:00 +0000,2022-09-10 17:00:00 -0700,16,16
2022-09-11 01:00:00 +0000,2022-09-10 18:00:00 -0700,16,16
2022-09-11 02:00:00 +0000,2022-09-10 19:00:00 -0700,23,19.5
2022-09-11 03:00:00 +0000,2022-09-10 20:00:00 -0700,18,18.7
2022-09-11 04:00:00 +0000,2022-09-10 21:00:00 -0700,19,18.8
2022-09-11 05:00:00 +0000,2022-09-10 22:00:00 -0700,14,16.4
2022-09-11 06:00:00 +0000,2022-09-10 23:00:00 -0700,20,18.2
2022-09-11 07:00:00 +0000,2022-09-11 00:00:00 -0700,17,17.6
2022-09-11 08:00:00 +0000,2022-09-11 01:00:00 -0700,23,20.3
2022-09-11 09:00:00 +0000,2022-09-11 02:00:00 -0700,17,18.6
2022-09-11 10:00:00 +0000,2022-09-11 03:00:00 -0700,20,19.2
2022-09-11 11:00:00 +0000,2022-09-11 04:00:00 -0700,18,18.7
2022-09-11 12:00:00 +0000,2022-09-11 05:00:00 -0700,14,16.8
2022-09-11 13:00:00 +0000,2022-09-11 06:00:00 -0700,19,17.7
2022-09-11 14:00:00 +0000,2022-09-11 07:00:00 -0700,21,18.9
2022-09-11 15:00:00 +0000,2022-09-11 08:00:00 -0700,25,21.7
2022-09-11 16:00:00 +0000,2022-09-11 09:00:00 -0700,19,20.5
2022-09-11 17:00:00 +0000,2022-09-11 10:00:00 -0700,21,20.7
2022-09-11 18:00:00 +0000,2022-09-11 11:00:00 -0700,23,21.7
2022-09-11 19:00:00 +0000,2022-09-11 12:00:00 -0700,24,22.7
2022-09-11 20:00:00 +0000,2022-09-11 13:00:00 -0700,22,22.4
2022-09-11 21:00:00 +0000,2022-09-11 14:00:00 -0700,24,23.1
2022-09-11 22:00:00 +0000,2022-09-11 15:00:00 -0700,26,24.4
2022-09-11 23:00:00 +0000,2022-09-11 16:00:00 -0700,23,23.7
2022-09-12 00:00:00 +0000,2022-09-11 17:00:00 -0700,27,24.5
2022-09-12 01:00:00 +0000,2022-09-11 18:00:00 -0700,33,28.4
2022-09-12 02:00:00 +0000,2022-09-11 19:00:00 -0700,33,30.4
2022-09-12 03:00:00 +0000,2022-09-11 20:00:00 -0700,30,30.2
2022-09-12 04:00:00 +0000,2022-09-11 21:00:00 -0700,31,30.2
2022-09-12 05:00:00 +0000,2022-09-11 22:00:00 -0700,30,30
2022-09-12 06:00:00 +0000,2022-09-11 23:00:00 -0700,34,31.5
2022-09-12 07:00:00 +0000,2022-09-12 00:00:00 -0700,31,31.3
2022-09-12 08:00:00 +0000,2022-09-12 01:00:00 -0700,28,30.2
2022-09-12 09:00:00 +0000,2022-09-12 02:00:00 -0700,32,30.8
2022-09-12 10:00:00 +0000,2022-09-12 03:00:00 -0700,32,31.2
2022-09-12 11:00:00 +0000,2022-09-12 04:00:00 -0700,34,31.7
2022-09-12 12:00:00 +0000,2022-09-12 05:00:00 -0700,38,33.6
2022-09-12 13:00:00 +0000,2022-09-12 06:00:00 -0700,41,36.2
2022-09-12 14:00:00 +0000,2022-09-12 07:00:00 -0700,44,39.4
2022-09-12 15:00:00 +0000,2022-09-12 08:00:00 -0700,46,42.2
2022-09-12 16:00:00 +0000,2022-09-12 09:00:00 -0700,46,43.7
2022-09-12 17:00:00 +0000,2022-09-12 10:00:00 -0700,48,45.6
2022-09-12 18:00:00 +0000,2022-09-12 11:00:00 -0700,47,46.2
2022-09-12 19:00:00 +0000,2022-09-12 12:00:00 -0700,51,48.5
2022-09-12 20:00:00 +0000,2022-09-12 13:00:00 -0700,48,47.9
2022-09-12 21:00:00 +0000,2022-09-12 14:00:00 -0700,59,53.2
2022-09-12 22:00:00 +0000,2022-09-12 15:00:00 -0700,69,61.3
2022-09-12 23:00:00 +0000,2022-09-12 16:00:00 -0700,52,56.5
2022-09-13 00:00:00 +0000,2022-09-12 17:00:00 -0700,56,56.2
2022-09-13 01:00:00 +0000,2022-09-12 18:00:00 -0700,55,55.6
2022-09-13 02:00:00 +0000,2022-09-12 19:00:00 -0700,67,59.4
2022-09-13 03:00:00 +0000,2022-09-12 20:00:00 -0700,58,58.9
2022-09-13 04:00:00 +0000,2022-09-12 21:00:00 -0700,55,57.6
2022-09-13 05:00:00 +0000,2022-09-12 22:00:00 -0700,50,55.2
2022-09-13 06:00:00 +0000,2022-09-12 23:00:00 -0700,53,54.6
2022-09-13 07:00:00 +0000,2022-09-13 00:00:00 -0700,52,53.8
2022-09-13 08:00:00 +0000,2022-09-13 01:00:00 -0700,52,53.5
2022-09-13 09:00:00 +0000,2022-09-13 02:00:00 -0700,45,50.1
2022-09-13 10:00:00 +0000,2022-09-13 03:00:00 -0700,38,44.3
2022-09-13 11:00:00 +0000,2022-09-13 04:00:00 -0700,31,37.1
2022-09-13 12:00:00 +0000,2022-09-13 05:00:00 -0700,41,39
2022-09-13 13:00:00 +0000,2022-09-13 06:00:00 -0700,37,38
2022-09-13 14:00:00 +0000,2022-09-13 07:00:00 -0700,36,37.1
2022-09-13 15:00:00 +0000,2022-09-13 08:00:00 -0700,35,36.3
2022-09-13 16:00:00 +0000,2022-09-13 09:00:00 -0700,30,33.5
2022-09-13 17:00:00 +0000,2022-09-13 10:00:00 -0700,27,30
2022-09-13 18:00:00 +0000,2022-09-13 11:00:00 -0700,18,23.9
2022-09-13 19:00:00 +0000,2022-09-13 12:00:00 -0700,25,24.4
2022-09-13 20:00:00 +0000,2022-09-13 13:00:00 -0700,25,24.7
2022-09-13 21:00:00 +0000,2022-09-13 14:00:00 -0700,33,28.8
2022-09-13 22:00:00 +0000,2022-09-13 15:00:00 -0700,30,29.4
2022-09-13 23:00:00 +0000,2022-09-13 16:00:00 -0700,26,27.7
2022-09-14 00:00:00 +0000,2022-09-13 17:00:00 -0700,14,20.8
2022-09-14 01:00:00 +0000,2022-09-13 18:00:00 -0700,13,16.9
2022-09-14 02:00:00 +0000,2022-09-13 19:00:00 -0700,14,15.4
2022-09-14 03:00:00 +0000,2022-09-13 20:00:00 -0700,17,16.2
2022-09-14 04:00:00 +0000,2022-09-13 21:00:00 -0700,13,14.6
2022-09-14 05:00:00 +0000,2022-09-13 22:00:00 -0700,9,11.8
2022-09-14 06:00:00 +0000,2022-09-13 23:00:00 -0700,16,13.9
2022-09-14 07:00:00 +0000,2022-09-14 00:00:00 -0700,12,12.9
2022-09-14 08:00:00 +0000,2022-09-14 01:00:00 -0700,16,14.4
2022-09-14 09:00:00 +0000,2022-09-14 02:00:00 -0700,11,12.7
2022-09-14 10:00:00 +0000,2022-09-14 03:00:00 -0700,10,11.3
2022-09-14 11:00:00 +0000,2022-09-14 04:00:00 -0700,12,11.7
2022-09-14 12:00:00 +0000,2022-09-14 05:00:00 -0700,12,11.8
2022-09-14 13:00:00 +0000,2022-09-14 06:00:00 -0700,11,11.4
2022-09-14 14:00:00 +0000,2022-09-14 07:00:00 -0700,16,13.5
2022-09-14 15:00:00 +0000,2022-09-14 08:00:00 -0700,15,14.1
2022-09-14 16:00:00 +0000,2022-09-14 09:00:00 -0700,12,13.2
2022-09-14 17:00:00 +0000,2022-09-14 10:00:00 -0700,15,13.8
2022-09-14 18:00:00 +0000,2022-09-14 11:00:00 -0700,18,15.7
2022-09-14 19:00:00 +0000,2022-09-14 12:00:00 -0700,19,17.3
2022-09-14 20:00:00 +0000,2022-09-14 13:00:00 -0700,25,21.2
2022-09-14 21:00:00 +0000,2022-09-14 14:00:00 -0700,25,23.1
2022-09-14 22:00:00 +0000,2022-09-14 15:00:00 -0700,24,23.5
2022-09-14 23:00:00 +0000,2022-09-14 16:00:00 -0700,26,24.7
2022-09-15 00:00:00 +0000,2022-09-14 17:00:00 -0700,20,22.3
2022-09-15 01:00:00 +0000,2022-09-14 18:00:00 -0700,20,21.1
2022-09-15 02:00:00 +0000,2022-09-14 19:00:00 -0700,17,19
2022-09-15 03:00:00 +0000,2022-09-14 20:00:00 -0700,16,17.5
2022-09-15 04:00:00 +0000,2022-09-14 21:00:00 -0700,15,16.7
2022-09-15 05:00:00 +0000,2022-09-14 22:00:00 -0700,14,15.3
2022-09-15 06:00:00 +0000,2022-09-14 23:00:00 -0700,16,15.6
2022-09-15 07:00:00 +0000,2022-09-15 00:00:00 -0700,12,13.7
2022-09-15 08:00:00 +0000,2022-09-15 01:00:00 -0700,27,20.3
2022-09-15 09:00:00 +0000,2022-09-15 02:00:00 -0700,17,18.6
2022-09-15 10:00:00 +0000,2022-09-15 03:00:00 -0700,17,17.8
2022-09-15 11:00:00 +0000,2022-09-15 04:00:00 -0700,6,11.9
2022-09-15 12:00:00 +0000,2022-09-15 05:00:00 -0700,17,14.4
2022-09-15 13:00:00 +0000,2022-09-15 06:00:00 -0700,21,17.7
2022-09-15 14:00:00 +0000,2022-09-15 07:00:00 -0700,14,15.8
2022-09-15 15:00:00 +0000,2022-09-15 08:00:00 -0700,13,14.4
2022-09-15 16:00:00 +0000,2022-09-15 09:00:00 -0700,17,15.7
2022-09-15 17:00:00 +0000,2022-09-15 10:00:00 -0700,16,15.8
2022-09-15 18:00:00 +0000,2022-09-15 11:00:00 -0700,17,16.4
2022-09-15 19:00:00 +0000,2022-09-15 12:00:00 -0700,14,15.2
2022-09-15 20:00:00 +0000,2022-09-15 13:00:00 -0700,15,15.1
2022-09-15 21:00:00 +0000,2022-09-15 14:00:00 -0700,18,16.5
2022-09-15 22:00:00 +0000,2022-09-15 15:00:00 -0700,17,16.7
2022-09-15 23:00:00 +0000,2022-09-15 16:00:00 -0700,16,16.3
2022-09-16 00:00:00 +0000,2022-09-15 17:00:00 -0700,13,15
2022-09-16 01:00:00 +0000,2022-09-15 18:00:00 -0700,11,13.4
2022-09-16 02:00:00 +0000,2022-09-15 19:00:00 -0700,10,11.7
2022-09-16 03:00:00 +0000,2022-09-15 20:00:00 -0700,9,10.2
2022-09-16 04:00:00 +0000,2022-09-15 21:00:00 -0700,8,9.1
2022-09-16 05:00:00 +0000,2022-09-15 22:00:00 -0700,6,7.5
2022-09-16 06:00:00 +0000,2022-09-15 23:00:00 -0700,4,5.7
2022-09-16 07:00:00 +0000,2022-09-16 00:00:00 -0700,3,4.3
2022-09-16 08:00:00 +0000,2022-09-16 01:00:00 -0700,4,4.1
2022-09-16 09:00:00 +0000,2022-09-16 02:00:00 -0700,7,5.5
2022-09-16 10:00:00 +0000,2022-09-16 03:00:00 -0700,6,5.7
2022-09-16 11:00:00 +0000,2022-09-16 04:00:00 -0700,4,4.8
2022-09-16 12:00:00 +0000,2022-09-16 05:00:00 -0700,8,6.4
2022-09-16 13:00:00 +0000,2022-09-16 06:00:00 -0700,7,6.7
2022-09-16 14:00:00 +0000,2022-09-16 07:00:00 -0700,5,5.8
2022-09-16 15:00:00 +0000,2022-09-16 08:00:00 -0700,4,4.9
2022-09-16 16:00:00 +0000,2022-09-16 09:00:00 -0700,2,3.4
2022-09-16 17:00:00 +0000,2022-09-16 10:00:00 -0700,1,2.2
2022-09-16 18:00:00 +0000,2022-09-16 11:00:00 -0700,0,1.1
2022-09-16 19:00:00 +0000,2022-09-16 12:00:00 -0700,1,1
2022-09-16 20:00:00 +0000,2022-09-16 13:00:00 -0700,2,1.5
2022-09-16 21:00:00 +0000,2022-09-16 14:00:00 -0700,0,0.7
2022-09-16 22:00:00 +0000,2022-09-16 15:00:00 -0700,0,0.3
2022-09-16 23:00:00 +0000,2022-09-16 16:00:00 -0700,0,0.1
2022-09-17 00:00:00 +0000,2022-09-16 17:00:00 -0700,1,0.5
2022-09-17 01:00:00 +0000,2022-09-16 18:00:00 -0700,1,0.7
2022-09-17 02:00:00 +0000,2022-09-16 19:00:00 -0700,0,0.3
2022-09-17 03:00:00 +0000,2022-09-16 20:00:00 -0700,0,0.1
2022-09-17 04:00:00 +0000,2022-09-16 21:00:00 -0700,0,0
2022-09-17 05:00:00 +0000,2022-09-16 22:00:00 -0700,2,1
2022-09-17 06:00:00 +0000,2022-09-16 23:00:00 -0700,3,2
2022-09-17 07:00:00 +0000,2022-09-17 00:00:00 -0700,3,2.5
2022-09-17 08:00:00 +0000,2022-09-17 01:00:00 -0700,2,2.2
2022-09-17 09:00:00 +0000,2022-09-17 02:00:00 -0700,0,1.1
2022-09-17 10:00:00 +0000,2022-09-17 03:00:00 -0700,0,0.5
2022-09-17 11:00:00 +0000,2022-09-17 04:00:00 -0700,0,0.2
2022-09-17 12:00:00 +0000,2022-09-17 05:00:00 -0700,2,1.1
2022-09-17 13:00:00 +0000,2022-09-17 06:00:00 -0700,4,2.5
2022-09-17 14:00:00 +0000,2022-09-17 07:00:00 -0700,3,2.7
2022-09-17 15:00:00 +0000,2022-09-17 08:00:00 -0700,2,2.3
2022-09-17 16:00:00 +0000,2022-09-17 09:00:00 -0700,1,1.6
2022-09-17 17:00:00 +0000,2022-09-17 10:00:00 -0700,0,0.8
2022-09-17 18:00:00 +0000,2022-09-17 11:00:00 -0700,0,0.4
2022-09-17 19:00:00 +0000,2022-09-17 12:00:00 -0700,2,1.2
2022-09-17 20:00:00 +0000,2022-09-17 13:00:00 -0700,3,2.1
2022-09-17 21:00:00 +0000,2022-09-17 14:00:00 -0700,1,1.5
2022-09-17 22:00:00 +0000,2022-09-17 15:00:00 -0700,1,1.2
2022-09-17 23:00:00 +0000,2022-09-17 16:00:00 -0700,3,2.1
2022-09-18 00:00:00 +0000,2022-09-17 17:00:00 -0700,2,2
2022-09-18 01:00:00 +0000,2022-09-17 18:00:00 -0700,4,3
2022-09-18 02:00:00 +0000,2022-09-17 19:00:00 -0700,4,3.5
2022-09-18 03:00:00 +0000,2022-09-17 20:00:00 -0700,6,4.7
2022-09-18 04:00:00 +0000,2022-09-17 21:00:00 -0700,7,5.8
2022-09-18 05:00:00 +0000,2022-09-17 22:00:00 -0700,7,6.4
2022-09-18 06:00:00 +0000,2022-09-17 23:00:00 -0700,5,5.7
2022-09-18 07:00:00 +0000,2022-09-18 00:00:00 -0700,4,4.8
2022-09-18 08:00:00 +0000,2022-09-18 01:00:00 -0700,5,4.9
2022-09-18 09:00:00 +0000,2022-09-18 02:00:00 -0700,5,4.9
2022-09-18 10:00:00 +0000,2022-09-18 03:00:00 -0700,5,4.9
2022-09-18 11:00:00 +0000,2022-09-18 04:00:00 -0700,5,4.9
2022-09-18 12:00:00 +0000,2022-09-18 05:00:00 -0700,2,3.4
2022-09-18 13:00:00 +0000,2022-09-18 06:00:00 -0700,1,2.2
2022-09-18 14:00:00 +0000,2022-09-18 07:00:00 -0700,4,3.1
2022-09-18 15:00:00 +0000,2022-09-18 08:00:00 -0700,3,3
2022-09-18 16:00:00 +0000,2022-09-18 09:00:00 -0700,2,2.5
2022-09-18 17:00:00 +0000,2022-09-18 10:00:00 -0700,4,3.2
2022-09-18 18:00:00 +0000,2022-09-18 11:00:00 -0700,3,3.1
2022-09-18 19:00:00 +0000,2022-09-18 12:00:00 -0700,1,2
2022-09-18 20:00:00 +0000,2022-09-18 13:00:00 -0700,4,3
2022-09-18 21:00:00 +0000,2022-09-18 14:00:00 -0700,5,4
2022-09-18 22:00:00 +0000,2022-09-18 15:00:00 -0700,4,4
2022-09-18 23:00:00 +0000,2022-09-18 16:00:00 -0700,2,3
2022-09-19 00:00:00 +0000,2022-09-18 17:00:00 -0700,1,2
2022-09-19 01:00:00 +0000,2022-09-18 18:00:00 -0700,3,2.5
2022-09-19 02:00:00 +0000,2022-09-18 19:00:00 -0700,5,3.7
2022-09-19 03:00:00 +0000,2022-09-18 20:00:00 -0700,5,4.3
2022-09-19 04:00:00 +0000,2022-09-18 21:00:00 -0700,7,5.6
2022-09-19 05:00:00 +0000,2022-09-18 22:00:00 -0700,6,5.8
2022-09-19 06:00:00 +0000,2022-09-18 23:00:00 -0700,6,5.9
2022-09-19 07:00:00 +0000,2022-09-19 00:00:00 -0700,6,5.9
2022-09-19 08:00:00 +0000,2022-09-19 01:00:00 -0700,10,7.9
2022-09-19 09:00:00 +0000,2022-09-19 02:00:00 -0700,6,6.9
2022-09-19 10:00:00 +0000,2022-09-19 03:00:00 -0700,5,5.9
2022-09-19 11:00:00 +0000,2022-09-19 04:00:00 -0700,6,5.9
2022-09-19 12:00:00 +0000,2022-09-19 05:00:00 -0700,3,4.4
2022-09-19 13:00:00 +0000,2022-09-19 06:00:00 -0700,4,4.2
2022-09-19 14:00:00 +0000,2022-09-19 07:00:00 -0700,6,5.1
2022-09-19 15:00:00 +0000,2022-09-19 08:00:00 -0700,NA,NA
